[[{"header":{"parameterUnit":"m.s-1","parameterCategory":2,"la1":30.2991,"la2":30.254,"lo1":-89.0895,"lo2":-89.0444,"dy":0.0017,"dx":0.0017,"nx":28,"ny":28,"refTime":"2025-04-23T09:00:00:Z","depth":"0","parameterNumber":2,"parameterNumberName":"U-component_of_CURRENTS"},"data":[0,0,0,0,0,0,0,0,0,0,0,0,0,0,0,0,0,0,0,0,0,0,0,0,0,0,0,0,0,0,0,0,0,0,0,0,0,0,0,0,0,0,0,0,0,0,0,0,0,0,0,0,0,0,0,0,0,0,-0.1962,-0.1963,0,-0.196,-0.1959,-0.1959,-0.1909,-0.1908,-0.1908,-0.1907,-0.1856,-0.1855,-0.1854,0,0,0,0,0,0,0,0,0,0,0,0,0,-0.1744,-0.1748,-0.1962,-0.1963,-0.1964,-0.196,-0.1959,-0.1958,-0.1909,-0.1908,-0.1908,-0.1907,-0.1856,-0.1855,-0.1854,0,0,0,0,0,0,0,0,0,0,0,0,0,-0.1792,-0.175,-0.1962,-0.1945,-0.1944,-0.196,-0.1959,-0.1958,-0.1909,-0.1908,-0.1908,-0.1907,-0.1857,-0.1855,-0.1854,-0.1859,0,0,-0.1849,-0.1849,0,0,0,0,0,0,0,0,-0.1789,-0.1799,-0.1947,-0.1946,-0.1945,-0.1942,-0.1864,-0.1926,-0.1909,-0.1913,-0.1907,-0.1907,-0.1886,-0.1883,-0.1872,-0.1857,-0.1854,-0.1849,-0.1849,-0.1848,-0.1848,0,0,0,0,0,0,0,-0.1786,-0.1798,-0.1952,-0.1948,-0.1947,-0.1877,-0.1884,-0.1874,-0.1896,-0.1912,-0.1911,-0.1925,-0.1884,-0.1873,-0.187,-0.1854,-0.1849,-0.1848,-0.1847,-0.1847,-0.186,-0.1861,0,0,0,0,0,0,-0.1816,-0.1796,-0.1952,-0.1953,-0.1874,-0.1883,-0.189,-0.1936,-0.1897,-0.1893,-0.1926,-0.1923,-0.1876,-0.1872,-0.1868,-0.1881,-0.1848,-0.1847,-0.1846,-0.1859,-0.186,-0.1862,0,0,0,0,0,0,-0.1812,-0.1831,-0.1952,-0.1878,-0.189,-0.189,-0.1941,-0.1937,-0.1929,-0.1909,-0.1903,-0.1924,-0.1875,-0.187,-0.1869,-0.1878,-0.1846,-0.1845,-0.1857,-0.1859,-0.1861,-0.1901,0,0,0,0,0,0,-0.1806,-0.183,-0.1853,-0.1883,-0.1896,-0.1965,-0.1942,-0.1938,-0.1943,-0.1939,-0.1905,-0.1899,-0.1874,-0.1871,-0.1868,-0.1876,-0.1844,-0.1856,-0.1858,-0.186,-0.1898,-0.1904,-0.1909,0,0,0,0,0,-0.1799,-0.1837,-0.1855,-0.1873,-0.1936,-0.1966,-0.1965,-0.1953,-0.1944,-0.1942,-0.1927,-0.1901,-0.1883,-0.1871,-0.1866,-0.1874,-0.1855,-0.1858,-0.186,-0.1896,-0.1903,-0.1909,0,0,0,0,0,0,-0.1733,-0.1838,-0.1857,-0.192,-0.1946,-0.1961,-0.196,-0.1961,-0.1947,-0.1943,-0.1914,-0.1908,-0.1909,-0.1894,-0.1882,-0.1888,-0.1866,-0.1867,-0.1894,-0.19,-0.1906,-0.1925,-0.1842,0,0,0,0,0,-0.1742,-0.18,-0.1872,-0.1909,-0.1938,-0.1951,-0.1957,-0.1962,-0.1965,-0.1957,-0.1935,-0.1921,-0.1917,-0.1911,-0.1899,-0.1903,-0.1921,-0.1908,-0.1913,-0.1918,-0.1932,-0.1969,-0.1979,-0.187,-0.187,-0.187,0,0,-0.1718,-0.1785,-0.1811,-0.1899,-0.1917,-0.1956,-0.195,-0.1975,-0.1991,-0.1956,-0.1951,-0.1937,-0.1924,-0.1925,-0.1925,-0.1913,-0.1962,-0.1921,-0.1925,-0.1937,-0.1973,-0.1983,-0.1993,-0.1872,-0.1872,-0.1872,0,0,-0.1704,-0.1775,-0.1822,-0.1863,-0.1925,-0.1946,-0.1963,-0.1994,-0.1994,-0.2001,-0.1985,-0.1983,-0.1962,-0.196,-0.1957,-0.199,-0.1989,-0.1984,-0.2024,-0.2059,-0.2068,-0.2076,-0.2128,-0.2141,-0.1986,-0.1987,-0.1987,0,-0.1668,-0.1751,-0.1825,-0.1881,-0.1908,-0.1951,-0.1986,-0.2005,-0.2019,-0.2041,-0.2004,-0.2015,-0.198,-0.2021,-0.2014,-0.2001,-0.203,-0.1996,-0.2066,-0.2075,-0.2082,-0.2133,-0.2147,-0.1989,-0.1989,-0.1988,-0.1988,0,-0.1699,-0.1756,-0.1783,-0.1882,-0.192,-0.1951,-0.2019,-0.2049,-0.2053,-0.2074,-0.2108,-0.2074,-0.2084,-0.207,-0.2038,-0.2088,-0.2096,-0.2068,-0.2049,-0.2096,-0.2147,-0.216,-0.1992,-0.1991,-0.1991,-0.199,0,0,-0.1638,-0.1778,-0.1782,-0.1827,-0.1924,-0.196,-0.2024,-0.2097,-0.2158,-0.2155,-0.2217,-0.2182,-0.218,-0.2178,-0.2155,-0.217,-0.2225,-0.2138,-0.2139,-0.2189,-0.2328,-0.218,-0.218,-0.2212,-0.2214,-0.2215,-0.2347,0,-0.1625,-0.1718,-0.1791,-0.185,-0.1908,-0.1987,-0.2043,-0.2122,-0.2176,-0.225,-0.2263,-0.2289,-0.2222,-0.2221,-0.2234,-0.223,-0.226,-0.2193,-0.2276,-0.2279,-0.214,-0.2189,-0.2054,-0.2145,-0.236,-0.2362,-0.2363,0,-0.1636,-0.1699,-0.1763,-0.1873,-0.1905,-0.194,-0.2071,-0.2122,-0.2264,-0.2307,-0.2373,-0.2399,-0.2433,-0.2355,-0.2402,-0.2367,-0.235,-0.2344,-0.2349,-0.2205,-0.2153,-0.213,-0.216,-0.2144,-0.2384,-0.2382,-0.2381,0,-0.1576,-0.1677,-0.1722,-0.1759,-0.1894,-0.1932,-0.1985,-0.2131,-0.2194,-0.2342,-0.2393,-0.2489,-0.2477,-0.2521,-0.246,-0.2455,-0.2507,-0.2504,-0.2378,-0.2369,-0.2265,-0.2241,-0.2284,-0.2549,-0.2549,-0.2548,-0.2548,0,-0.1557,-0.1592,-0.1695,-0.1727,-0.1794,-0.1883,-0.1973,-0.207,-0.2197,-0.2267,-0.2385,-0.2424,-0.2504,-0.2533,-0.2532,-0.2471,-0.2561,-0.2402,-0.2389,-0.2274,-0.225,-0.2236,-0.225,-0.2553,-0.2552,-0.2551,-0.255,0,-0.1508,-0.1571,-0.164,-0.1748,-0.1779,-0.1823,-0.1937,-0.2008,-0.2116,-0.2213,-0.2245,-0.2374,-0.2395,-0.2468,-0.2518,-0.2492,-0.2447,-0.2448,-0.2305,-0.227,-0.2137,-0.2158,-0.2194,-0.214,-0.2401,-0.2398,-0.2395,0,-0.1502,-0.1529,-0.1639,-0.1677,-0.1719,-0.1789,-0.1844,-0.1961,-0.2018,-0.2144,-0.2164,-0.2233,-0.2253,-0.2299,-0.2288,-0.2325,-0.2311,-0.2207,-0.2151,-0.2116,-0.2135,-0.2154,-0.2109,-0.2066,-0.2061,-0.2057,-0.2053,0,-0.148,-0.1511,-0.1568,-0.1643,-0.1691,-0.1751,-0.1805,-0.184,-0.1947,-0.2003,-0.2031,-0.2059,-0.2079,-0.2042,-0.2054,-0.2048,-0.2136,-0.2119,-0.2136,-0.1912,-0.189,-0.1833,-0.2018,-0.2017,-0.202,-0.2023,-0.2025,-0.2027,-0.145,-0.1483,-0.1544,-0.1609,-0.1659,-0.1669,-0.1669,-0.1715,-0.175,-0.1783,-0.1849,-0.1844,-0.1847,-0.1836,-0.1825,-0.1754,-0.1844,-0.1738,-0.1788,-0.183,-0.1692,-0.1778,-0.1704,-0.1705,-0.1707,-0.1708,-0.1709,0,-0.1414,-0.1447,-0.1504,-0.1559,-0.1563,-0.1606,-0.1619,-0.1581,-0.1552,-0.1603,-0.1605,-0.1612,-0.1546,-0.1571,-0.1524,-0.1475,-0.1471,-0.146,-0.1499,-0.1484,-0.1608,-0.15,-0.131,-0.131,-0.131,-0.131,-0.131,-0.131,-0.14,-0.1424,-0.1457,-0.1446,-0.1461,-0.139,-0.1363,-0.1319,-0.1316,-0.1289,-0.1321,-0.1381,-0.1401,-0.15,-0.1418,-0.1352,-0.1364,-0.1291,-0.1367,-0.1487,-0.1519,-0.1549,-0.1451,-0.1253,-0.1253,-0.1171,-0.1171,-0.117]},{"header":{"parameterUnit":"m.s-1","parameterCategory":2,"la1":30.2991,"la2":30.254,"lo1":-89.0895,"lo2":-89.0444,"dy":0.0017,"dx":0.0017,"nx":28,"ny":28,"refTime":"2025-04-23T09:00:00:Z","depth":"0","parameterNumber":3,"parameterNumberName":"V-component_of_CURRENTS"},"data":[0,0,0,0,0,0,0,0,0,0,0,0,0,0,0,0,0,0,0,0,0,0,0,0,0,0,0,0,0,0,0,0,0,0,0,0,0,0,0,0,0,0,0,0,0,0,0,0,0,0,0,0,0,0,0,0,0,0,0.0051,0.0051,0,0.0026,0.0026,0.0025,-0.0009,-0.0009,-0.0009,-0.0009,-0.0006,-0.0006,-0.0006,0,0,0,0,0,0,0,0,0,0,0,0,0,-0.0123,-0.0119,0.0051,0.0051,0.0051,0.0026,0.0026,0.0025,-0.0009,-0.0009,-0.0009,-0.0009,-0.0006,-0.0006,-0.0006,0,0,0,0,0,0,0,0,0,0,0,0,0,-0.0092,-0.0118,0.0051,0.0035,0.0034,0.0027,0.0026,0.0025,-0.0009,-0.0009,-0.0009,-0.0009,-0.0006,-0.0006,-0.0006,0.0,0,0,-0.0005,-0.0005,0,0,0,0,0,0,0,0,-0.0093,-0.0086,0.0037,0.0036,0.0035,0.0016,-0.0035,0.002,-0.0009,0.0002,-0.0009,-0.001,0.0007,0.0006,-0.0005,0.0,0.0001,-0.0005,-0.0004,-0.0004,-0.0004,0,0,0,0,0,0,0,-0.0095,-0.0086,0.0036,0.0038,0.0036,-0.0037,-0.0031,-0.0026,0.0003,0.0001,-0.0,0.0005,0.0006,-0.0005,-0.0005,0.0001,-0.0005,-0.0004,-0.0004,-0.0004,0.0013,0.0014,0,0,0,0,0,0,-0.0071,-0.0086,0.0037,0.0036,-0.0026,-0.0032,-0.0026,0.0018,0.0002,0.0001,0.0005,0.0003,-0.0006,-0.0005,-0.0005,0.0001,-0.0004,-0.0004,-0.0004,0.0013,0.0013,0.0014,0,0,0,0,0,0,-0.0074,-0.0058,0.0038,-0.0026,-0.0017,-0.0027,0.0022,0.0018,0.001,0.0006,0.0004,0.0002,-0.0006,-0.0005,-0.0008,0.0001,-0.0004,-0.0004,0.0013,0.0013,0.0013,0.0013,0,0,0,0,0,0,-0.0078,-0.0058,-0.0031,-0.0022,-0.0012,0.0034,0.0022,0.0018,0.0015,0.0013,0.0003,0.0002,-0.0006,-0.0008,-0.0007,0.0001,-0.0003,0.0012,0.0013,0.0013,0.0012,0.0013,0.0013,0,0,0,0,0,-0.0084,-0.0049,-0.0028,-0.0015,0.0032,0.0035,0.0031,0.0018,0.0016,0.0009,-0.0,0.0003,-0.0004,-0.0008,-0.0007,0.0002,0.0012,0.0013,0.0013,0.0012,0.0013,0.0013,0,0,0,0,0,0,-0.0156,-0.0048,-0.0026,0.003,0.0035,0.0031,0.0025,0.0023,0.0009,0.0008,0.0001,-0.0,-0.0,0.0004,-0.0001,0.0009,0.0007,0.0008,0.0006,0.0007,0.0007,0.0036,-0.0003,0,0,0,0,0,-0.0141,-0.006,-0.0016,0.0018,0.0033,0.0032,0.0029,0.0026,0.0022,0.0015,0.0007,0.0004,0.0003,0.0007,0.0001,0.001,0.0046,0.0018,0.0019,0.0019,0.0043,0.0092,0.0099,0.0016,0.0016,0.0016,0,0,-0.0173,-0.0096,-0.0063,0.0012,0.0017,0.0029,0.0028,0.0031,0.003,0.002,0.0009,0.0003,0.0004,0.0002,0.0005,0.0008,0.0062,0.002,0.002,0.0045,0.0093,0.0102,0.0109,0.0016,0.0016,0.0016,0,0,-0.0194,-0.0113,-0.0057,-0.0033,0.0009,0.0017,0.0025,0.0031,0.0029,0.0023,0.0015,0.0022,0.0009,0.0018,0.0021,0.0029,0.0058,0.0021,0.0054,0.01,0.0108,0.0115,0.0175,0.0188,0.0028,0.0028,0.0028,0,-0.0249,-0.0149,-0.0064,-0.002,-0.0011,0.0018,0.0023,0.0031,0.0026,0.0036,0.002,0.003,0.0022,0.005,0.0043,0.0033,0.0067,0.0048,0.0102,0.011,0.0118,0.0177,0.0191,0.0028,0.0028,0.0028,0.0028,0,-0.0225,-0.0164,-0.0143,-0.0048,-0.0033,-0.0025,0.0012,0.0021,0.0026,0.0037,0.0058,0.0054,0.0066,0.0062,0.0051,0.0101,0.0111,0.0091,0.0102,0.0126,0.0187,0.0202,0.0028,0.0028,0.0028,0.0028,0,0,-0.0317,-0.0153,-0.0151,-0.0121,-0.0044,-0.0042,-0.0009,0.0023,0.0037,0.0058,0.0081,0.0091,0.0107,0.0114,0.0113,0.0157,0.0226,0.0147,0.015,0.0212,0.0344,0.0326,0.0341,0.0212,0.0214,0.0216,0.0367,0,-0.0345,-0.0255,-0.0171,-0.0154,-0.0122,-0.0069,-0.0055,-0.0017,0.0017,0.0048,0.0103,0.0112,0.0124,0.0118,0.0175,0.0203,0.0265,0.0189,0.0309,0.0313,0.0298,0.0357,0.0381,0.0515,0.0381,0.0384,0.0385,0,-0.0354,-0.0285,-0.0238,-0.018,-0.0169,-0.0162,-0.0118,-0.0101,-0.0016,0.0007,0.0082,0.012,0.0203,0.0187,0.0323,0.0272,0.032,0.0354,0.036,0.036,0.0323,0.0469,0.0547,0.0683,0.0408,0.0406,0.0405,0,-0.0429,-0.0352,-0.031,-0.0287,-0.0208,-0.0201,-0.0184,-0.0113,-0.0107,-0.0006,0.0006,0.0138,0.0161,0.0279,0.0356,0.0344,0.0495,0.0484,0.0532,0.0532,0.0588,0.0588,0.082,0.0594,0.0593,0.0593,0.0592,0,-0.0464,-0.0447,-0.0345,-0.032,-0.0331,-0.0264,-0.0269,-0.0224,-0.0168,-0.0161,-0.0027,-0.0002,0.0177,0.0279,0.0381,0.0507,0.0525,0.0571,0.0577,0.0586,0.0584,0.073,0.0765,0.0599,0.0597,0.0596,0.0595,0,-0.0525,-0.0449,-0.0414,-0.0347,-0.0346,-0.0354,-0.0346,-0.0348,-0.0287,-0.0267,-0.0243,-0.01,0.0046,0.0226,0.0403,0.0502,0.0716,0.0666,0.0672,0.0676,0.0856,0.0887,0.1105,0.1176,0.0793,0.0793,0.0794,0,-0.0533,-0.0501,-0.0446,-0.0456,-0.0427,-0.0436,-0.0452,-0.041,-0.0412,-0.0343,-0.0345,-0.0196,-0.0084,0.0205,0.0421,0.066,0.0738,0.0794,0.0779,0.0905,0.0946,0.0963,0.1008,0.0868,0.0869,0.0869,0.087,0,-0.0553,-0.0522,-0.0488,-0.0509,-0.0529,-0.0557,-0.0573,-0.0598,-0.0554,-0.053,-0.0472,-0.0369,-0.0079,0.0211,0.0508,0.0642,0.0896,0.0816,0.0961,0.1049,0.1073,0.1129,0.0734,0.0878,0.0877,0.0876,0.0876,0.0876,-0.0572,-0.0569,-0.053,-0.0569,-0.0608,-0.0665,-0.0697,-0.0709,-0.0721,-0.0672,-0.0568,-0.0389,0.0043,0.0482,0.0633,0.0985,0.095,0.1104,0.1144,0.116,0.1199,0.0818,0.0938,0.0937,0.0937,0.0937,0.0936,0,-0.057,-0.0573,-0.0606,-0.064,-0.0715,-0.0717,-0.0772,-0.0798,-0.0816,-0.0707,-0.0612,-0.0146,0.0263,0.0657,0.1147,0.1326,0.1372,0.1417,0.1488,0.1527,0.1226,0.1199,0.1362,0.1362,0.1362,0.1362,0.1362,0.1361,-0.0563,-0.0573,-0.0599,-0.0722,-0.0774,-0.0851,-0.0885,-0.0905,-0.0839,-0.0646,-0.0385,-0.016,0.043,0.119,0.1634,0.1672,0.183,0.1796,0.1878,0.1703,0.1678,0.1655,0.1643,0.1896,0.1897,0.2184,0.2187,0.2189]}],[{"header":{"parameterUnit":"m.s-1","parameterCategory":2,"la1":30.2991,"la2":30.254,"lo1":-89.0895,"lo2":-89.0444,"dy":0.0017,"dx":0.0017,"nx":28,"ny":28,"refTime":"2025-04-23T09:00:00:Z","depth":"2","parameterNumber":2,"parameterNumberName":"U-component_of_CURRENTS"},"data":[0,0,0,0,0,0,0,0,0,0,0,0,0,0,0,0,0,0,0,0,0,0,0,0,0,0,0,0,0,0,0,0,0,0,0,0,0,0,0,0,0,0,0,0,0,0,0,0,0,0,0,0,0,0,0,0,0,0,-0.158,-0.158,0,-0.146,-0.1457,-0.1455,-0.1382,-0.1383,-0.1384,-0.1384,-0.1298,-0.1295,-0.1292,0,0,0,0,0,0,0,0,0,0,0,0,0,-0.1584,-0.1584,-0.158,-0.158,-0.1579,-0.146,-0.1457,-0.1455,-0.1382,-0.1383,-0.1384,-0.1385,-0.1299,-0.1295,-0.1292,0,0,0,0,0,0,0,0,0,0,0,0,0,-0.1525,-0.1585,-0.158,-0.1537,-0.1533,-0.1461,-0.1457,-0.1454,-0.1382,-0.1383,-0.1384,-0.1385,-0.13,-0.1295,-0.1291,-0.1244,0,0,-0.1278,-0.1276,0,0,0,0,0,0,0,0,-0.1528,-0.1523,-0.1544,-0.154,-0.1535,-0.1447,-0.1427,-0.1389,-0.1382,-0.1427,-0.1384,-0.1386,-0.1357,-0.1348,-0.1307,-0.124,-0.1236,-0.1277,-0.1275,-0.1273,-0.1271,0,0,0,0,0,0,0,-0.1533,-0.1527,-0.1521,-0.1543,-0.1538,-0.1469,-0.1461,-0.1418,-0.138,-0.1423,-0.1421,-0.1425,-0.1354,-0.1311,-0.1305,-0.1235,-0.1277,-0.1273,-0.1271,-0.1269,-0.1154,-0.1153,0,0,0,0,0,0,-0.1578,-0.1532,-0.1525,-0.1519,-0.1547,-0.1469,-0.1461,-0.1465,-0.138,-0.1371,-0.1424,-0.1422,-0.1318,-0.131,-0.1302,-0.1344,-0.1273,-0.1269,-0.1266,-0.1154,-0.1154,-0.1153,0,0,0,0,0,0,-0.1578,-0.1578,-0.153,-0.1531,-0.1522,-0.1471,-0.1474,-0.1462,-0.1441,-0.1382,-0.1371,-0.142,-0.1319,-0.1308,-0.1259,-0.1337,-0.1267,-0.1263,-0.1155,-0.1154,-0.1153,-0.1363,0,0,0,0,0,0,-0.1579,-0.1579,-0.1591,-0.1535,-0.1524,-0.1512,-0.1474,-0.146,-0.1446,-0.1442,-0.1374,-0.1365,-0.1319,-0.1266,-0.1254,-0.1329,-0.1259,-0.1155,-0.1154,-0.1154,-0.1357,-0.137,-0.1381,0,0,0,0,0,-0.1579,-0.1587,-0.1592,-0.1592,-0.1545,-0.1514,-0.15,-0.1458,-0.1446,-0.144,-0.1377,-0.1369,-0.1254,-0.1261,-0.1248,-0.1324,-0.1155,-0.1155,-0.1154,-0.1351,-0.1367,-0.1381,0,0,0,0,0,0,-0.1581,-0.158,-0.1584,-0.159,-0.1573,-0.1506,-0.1486,-0.1473,-0.1414,-0.1413,-0.1349,-0.1335,-0.1316,-0.1268,-0.1278,-0.1277,-0.1209,-0.1205,-0.1364,-0.1378,-0.139,-0.1431,-0.1255,0,0,0,0,0,-0.1597,-0.1608,-0.1596,-0.1598,-0.1591,-0.1545,-0.1527,-0.1515,-0.1464,-0.1439,-0.1397,-0.1342,-0.1295,-0.1297,-0.1228,-0.1237,-0.1228,-0.1273,-0.1286,-0.1297,-0.1314,-0.135,-0.1371,-0.115,-0.115,-0.115,0,0,-0.1589,-0.1599,-0.1598,-0.1602,-0.1569,-0.157,-0.1532,-0.1521,-0.1547,-0.144,-0.1437,-0.1368,-0.1291,-0.1287,-0.1281,-0.1273,-0.1356,-0.1296,-0.1308,-0.1318,-0.1352,-0.1375,-0.1395,-0.1149,-0.1149,-0.115,0,0,-0.1579,-0.1596,-0.1598,-0.1599,-0.16,-0.1591,-0.1604,-0.1568,-0.1577,-0.1568,-0.1493,-0.1478,-0.1404,-0.1389,-0.1367,-0.1403,-0.1392,-0.1377,-0.1519,-0.1555,-0.1576,-0.1594,-0.164,-0.1661,-0.142,-0.1421,-0.1421,0,-0.1581,-0.1583,-0.159,-0.16,-0.1601,-0.1613,-0.1614,-0.1635,-0.16,-0.1617,-0.1596,-0.1519,-0.1468,-0.1492,-0.1501,-0.1447,-0.1449,-0.1489,-0.1582,-0.1599,-0.1614,-0.1656,-0.1676,-0.143,-0.1429,-0.1428,-0.1427,0,-0.157,-0.1579,-0.1574,-0.1607,-0.1618,-0.1619,-0.1666,-0.1696,-0.1718,-0.1741,-0.1768,-0.1707,-0.1665,-0.1669,-0.1599,-0.168,-0.1641,-0.1577,-0.1572,-0.1651,-0.1687,-0.1705,-0.1445,-0.1441,-0.1438,-0.1436,0,0,-0.1544,-0.1565,-0.1561,-0.1576,-0.1623,-0.1629,-0.1705,-0.1763,-0.1818,-0.1862,-0.1924,-0.1901,-0.1887,-0.1855,-0.1803,-0.1869,-0.1987,-0.1785,-0.1782,-0.1878,-0.208,-0.1905,-0.1907,-0.1944,-0.1948,-0.195,-0.2077,0,-0.1525,-0.1537,-0.1561,-0.1584,-0.1589,-0.1646,-0.1711,-0.1791,-0.1855,-0.1929,-0.1992,-0.1998,-0.1962,-0.194,-0.2013,-0.1955,-0.2035,-0.1959,-0.1944,-0.1945,-0.182,-0.1921,-0.1748,-0.1831,-0.2093,-0.2096,-0.2098,0,-0.1502,-0.1515,-0.152,-0.1577,-0.1584,-0.1617,-0.1717,-0.1779,-0.1921,-0.1971,-0.2059,-0.2077,-0.2176,-0.2115,-0.2205,-0.2153,-0.2133,-0.2131,-0.2134,-0.1908,-0.1801,-0.178,-0.1851,-0.2126,-0.2124,-0.2121,-0.212,0,-0.1468,-0.1491,-0.1495,-0.151,-0.158,-0.1607,-0.1655,-0.1779,-0.1847,-0.1989,-0.2036,-0.2174,-0.2189,-0.2262,-0.2229,-0.2229,-0.2306,-0.2299,-0.2153,-0.2142,-0.1956,-0.192,-0.2375,-0.2375,-0.2375,-0.2374,-0.2374,0,-0.1446,-0.1449,-0.1474,-0.148,-0.1513,-0.1571,-0.164,-0.1713,-0.1834,-0.1912,-0.2033,-0.2091,-0.2215,-0.226,-0.2283,-0.2251,-0.2347,-0.2204,-0.2168,-0.2018,-0.1988,-0.2188,-0.2165,-0.2379,-0.2378,-0.2377,-0.2376,0,-0.1409,-0.1423,-0.1428,-0.1473,-0.1495,-0.1512,-0.1609,-0.1669,-0.1765,-0.1866,-0.1906,-0.2041,-0.2093,-0.2182,-0.2256,-0.2247,-0.2272,-0.2213,-0.2026,-0.1964,-0.2103,-0.2089,-0.218,-0.2175,-0.2171,-0.2167,-0.2164,0,-0.139,-0.1386,-0.1407,-0.1414,-0.1427,-0.1472,-0.1519,-0.1625,-0.168,-0.1814,-0.1848,-0.1926,-0.1964,-0.2022,-0.202,-0.2067,-0.2123,-0.1899,-0.1871,-0.2131,-0.2087,-0.2079,-0.207,-0.1743,-0.1737,-0.1732,-0.1728,0,-0.134,-0.1339,-0.1331,-0.1355,-0.1378,-0.1421,-0.1476,-0.1513,-0.1629,-0.1692,-0.1746,-0.1785,-0.1811,-0.1762,-0.1746,-0.175,-0.19,-0.1794,-0.2131,-0.1774,-0.1715,-0.1673,-0.168,-0.1683,-0.1688,-0.1691,-0.1693,-0.1695,-0.1283,-0.1256,-0.1248,-0.1268,-0.1309,-0.1336,-0.1338,-0.1405,-0.1452,-0.1509,-0.1588,-0.1582,-0.16,-0.1511,-0.1461,-0.1434,-0.159,-0.1563,-0.1582,-0.1606,-0.1486,-0.1418,-0.1312,-0.1314,-0.1316,-0.1318,-0.132,0,-0.1184,-0.117,-0.118,-0.118,-0.1198,-0.1254,-0.1291,-0.1273,-0.1275,-0.1339,-0.1363,-0.1244,-0.1193,-0.1221,-0.1113,-0.1107,-0.114,-0.1067,-0.1119,-0.1162,-0.12,-0.1064,-0.0777,-0.0775,-0.0774,-0.0773,0,0,-0.1131,-0.1076,-0.1079,-0.1059,-0.1083,-0.1055,-0.1049,-0.1037,-0.105,-0.1025,-0.1023,-0.1129,-0.1166,-0.0969,-0.0925,-0.0832,-0.0992,-0.0789,-0.1219,-0.1319,-0.1357,-0.1472,-0.1305,0,0,0,0,0]},{"header":{"parameterUnit":"m.s-1","parameterCategory":2,"la1":30.2991,"la2":30.254,"lo1":-89.0895,"lo2":-89.0444,"dy":0.0017,"dx":0.0017,"nx":28,"ny":28,"refTime":"2025-04-23T09:00:00:Z","depth":"2","parameterNumber":3,"parameterNumberName":"V-component_of_CURRENTS"},"data":[0,0,0,0,0,0,0,0,0,0,0,0,0,0,0,0,0,0,0,0,0,0,0,0,0,0,0,0,0,0,0,0,0,0,0,0,0,0,0,0,0,0,0,0,0,0,0,0,0,0,0,0,0,0,0,0,0,0,-0.0003,-0.0003,0,0.0014,0.0014,0.0014,-0.0013,-0.0014,-0.0015,-0.0015,-0.0134,-0.0136,-0.0138,0,0,0,0,0,0,0,0,0,0,0,0,0,-0.0183,-0.0179,-0.0003,-0.0003,-0.0003,0.0014,0.0014,0.0014,-0.0012,-0.0014,-0.0015,-0.0016,-0.0133,-0.0135,-0.0138,0,0,0,0,0,0,0,0,0,0,0,0,0,-0.0129,-0.0178,-0.0003,-0.0014,-0.0015,0.0014,0.0014,0.0014,-0.0012,-0.0014,-0.0015,-0.0016,-0.0132,-0.0135,-0.0139,-0.0131,0,0,-0.0149,-0.015,0,0,0,0,0,0,0,0,-0.0132,-0.0122,-0.0013,-0.0014,-0.0014,-0.0003,-0.0093,-0.0041,-0.0012,-0.0013,-0.0015,-0.0017,-0.0102,-0.0107,-0.0099,-0.0137,-0.0142,-0.0149,-0.0151,-0.0153,-0.0154,0,0,0,0,0,0,0,-0.0135,-0.0124,0.0004,-0.0013,-0.0014,-0.0063,-0.0055,-0.0083,-0.0052,-0.0013,-0.0015,-0.0013,-0.0103,-0.0095,-0.0102,-0.0143,-0.0149,-0.0152,-0.0154,-0.0156,-0.0221,-0.0221,0,0,0,0,0,0,-0.0129,-0.0126,0.0003,0.0004,-0.0078,-0.0058,-0.005,-0.0005,-0.0049,-0.0056,-0.0012,-0.0014,-0.0089,-0.0098,-0.0107,-0.0132,-0.0153,-0.0156,-0.0158,-0.0221,-0.0221,-0.0221,0,0,0,0,0,0,-0.0132,-0.0115,0.0002,-0.0064,-0.0053,-0.0052,-0.0003,-0.0004,-0.0009,-0.0046,-0.0056,-0.0018,-0.009,-0.0102,-0.0142,-0.0136,-0.0157,-0.0161,-0.0222,-0.0221,-0.0221,-0.0163,0,0,0,0,0,0,-0.0136,-0.0116,-0.0091,-0.0062,-0.0049,0.0009,-0.0002,-0.0003,-0.0005,-0.0009,-0.0054,-0.0066,-0.0092,-0.0136,-0.0145,-0.0141,-0.0163,-0.0222,-0.0221,-0.0221,-0.0166,-0.0161,-0.0157,0,0,0,0,0,-0.0142,-0.0109,-0.0088,-0.0074,-0.0009,0.0009,0.0011,0.0004,-0.0004,-0.0006,-0.0037,-0.0065,-0.0139,-0.0139,-0.0149,-0.0146,-0.0222,-0.0222,-0.0221,-0.0168,-0.0162,-0.0157,0,0,0,0,0,0,-0.0203,-0.0107,-0.0085,-0.003,-0.0014,0.0004,0.0003,0.0003,-0.0017,-0.0026,-0.0064,-0.0077,-0.0111,-0.0135,-0.0134,-0.0163,-0.0184,-0.0185,-0.014,-0.0135,-0.0131,-0.0104,-0.0166,0,0,0,0,0,-0.0192,-0.0128,-0.0075,-0.0041,-0.0022,-0.0007,-0.0004,-0.0003,-0.0012,-0.0021,-0.0053,-0.0085,-0.011,-0.013,-0.0161,-0.0176,-0.0155,-0.018,-0.0176,-0.0172,-0.0157,-0.0112,-0.0102,-0.0218,-0.0218,-0.0218,0,0,-0.0225,-0.0152,-0.0131,-0.0049,-0.0031,-0.001,-0.0009,0.0001,0.0003,-0.0033,-0.0055,-0.0078,-0.0113,-0.0131,-0.0147,-0.0154,-0.0126,-0.0171,-0.0168,-0.0155,-0.011,-0.0099,-0.0088,-0.0218,-0.0218,-0.0218,0,0,-0.0248,-0.0172,-0.0128,-0.0096,-0.0047,-0.0027,-0.0024,-0.0002,-0.0005,-0.0019,-0.004,-0.0049,-0.0105,-0.0105,-0.0117,-0.0106,-0.0108,-0.0131,-0.0084,-0.0041,-0.003,-0.002,0.0037,0.0051,-0.0124,-0.0124,-0.0124,0,-0.0294,-0.021,-0.0131,-0.0084,-0.0072,-0.0033,-0.0024,-0.0006,-0.0012,-0.001,-0.0029,-0.0052,-0.0083,-0.0072,-0.0068,-0.0093,-0.0069,-0.01,-0.0032,-0.0022,-0.0013,0.0043,0.0058,-0.0121,-0.0121,-0.0122,-0.0122,0,-0.0284,-0.0225,-0.0204,-0.011,-0.009,-0.0077,-0.0032,-0.0022,-0.002,-0.0005,-0.0001,-0.0012,-0.0024,-0.0029,-0.0049,-0.0002,-0.0004,-0.0032,-0.0038,0.0003,0.0059,0.0074,-0.0117,-0.0118,-0.0119,-0.0119,0,0,-0.0368,-0.0223,-0.0222,-0.0189,-0.0102,-0.0095,-0.0062,-0.0028,-0.0026,0.0005,0.0015,0.0023,0.0038,0.0028,0.0021,0.007,0.0158,0.0048,0.0049,0.0118,0.0269,0.0235,0.0248,0.0139,0.0141,0.0143,0.029,0,-0.0395,-0.0319,-0.0243,-0.0221,-0.0182,-0.0127,-0.0114,-0.0076,-0.0051,-0.003,0.0032,0.0026,0.0055,0.0039,0.0108,0.0128,0.0196,0.0122,0.0208,0.0211,0.0186,0.0263,0.0234,0.0358,0.0304,0.0306,0.0308,0,-0.0412,-0.0347,-0.0311,-0.0251,-0.0238,-0.0227,-0.0197,-0.018,-0.0106,-0.0091,-0.0019,0.0011,0.0108,0.01,0.025,0.0198,0.0246,0.0283,0.0288,0.0248,0.0204,0.0303,0.0387,0.0333,0.0331,0.0329,0.0328,0,-0.0488,-0.0412,-0.0386,-0.036,-0.0277,-0.0274,-0.0257,-0.02,-0.0198,-0.0118,-0.0114,0.0021,0.0049,0.0176,0.0263,0.0258,0.041,0.0406,0.0441,0.044,0.0428,0.0421,0.0518,0.0518,0.0518,0.0517,0.0517,0,-0.0523,-0.051,-0.0422,-0.0395,-0.0411,-0.034,-0.0357,-0.032,-0.0274,-0.0269,-0.015,-0.0122,0.0061,0.0162,0.0277,0.041,0.0432,0.048,0.0482,0.0446,0.0438,0.0412,0.0398,0.0523,0.0521,0.052,0.0519,0,-0.0587,-0.0527,-0.049,-0.0424,-0.0424,-0.0434,-0.0426,-0.0438,-0.0387,-0.0372,-0.035,-0.0218,-0.0068,0.0106,0.0286,0.0388,0.0527,0.0551,0.0503,0.0497,0.0541,0.0528,0.0671,0.0671,0.0671,0.0671,0.0671,0,-0.0604,-0.0576,-0.0522,-0.0534,-0.0504,-0.0515,-0.0532,-0.0494,-0.05,-0.0435,-0.0432,-0.0298,-0.0185,0.0093,0.0294,0.0525,0.0515,0.0596,0.0589,0.0574,0.0561,0.0548,0.0535,0.0615,0.0615,0.0614,0.0614,0,-0.0619,-0.0595,-0.0562,-0.059,-0.061,-0.0634,-0.0647,-0.0668,-0.0624,-0.0601,-0.0534,-0.0436,-0.0171,0.0079,0.0336,0.0463,0.0573,0.0596,0.0609,0.0553,0.0525,0.051,0.0499,0.0611,0.0612,0.0612,0.0612,0.0612,-0.0636,-0.0639,-0.0609,-0.0654,-0.069,-0.0736,-0.0759,-0.0766,-0.0768,-0.0711,-0.0608,-0.0441,-0.0199,0.0188,0.0374,0.055,0.057,0.0629,0.0629,0.063,0.057,0.054,0.0621,0.0621,0.0621,0.0622,0.0622,0,-0.0634,-0.065,-0.0689,-0.0725,-0.079,-0.0791,-0.0828,-0.0839,-0.0839,-0.0737,-0.0637,-0.0379,-0.0097,0.0151,0.0432,0.0597,0.0603,0.0616,0.0601,0.0603,0.0605,0.0542,0.0587,0.0587,0.0588,0.0588,0,0,-0.0635,-0.0657,-0.069,-0.08,-0.0845,-0.0901,-0.0919,-0.0919,-0.0853,-0.0763,-0.0619,-0.0397,-0.0085,0.0102,0.0316,0.046,0.0485,0.0468,0.048,0.0439,0.0439,0.0599,0.0501,0,0,0,0,0]}],[{"header":{"parameterUnit":"m.s-1","parameterCategory":2,"la1":30.2991,"la2":30.254,"lo1":-89.0895,"lo2":-89.0444,"dy":0.0017,"dx":0.0017,"nx":28,"ny":28,"refTime":"2025-04-23T09:00:00:Z","depth":"4","parameterNumber":2,"parameterNumberName":"U-component_of_CURRENTS"},"data":[0,0,0,0,0,0,0,0,0,0,0,0,0,0,0,0,0,0,0,0,0,0,0,0,0,0,0,0,0,0,0,0,0,0,0,0,0,0,0,0,0,0,0,0,0,0,0,0,0,0,0,0,0,0,0,0,0,0,-0.061,-0.0611,0,-0.0729,-0.073,-0.0731,-0.0792,-0.0792,-0.0792,-0.0792,-0.0753,-0.0752,-0.075,0,0,0,0,0,0,0,0,0,0,0,0,0,-0.0612,-0.0611,-0.061,-0.0611,-0.0613,-0.0729,-0.073,-0.0731,-0.0792,-0.0792,-0.0792,-0.0793,-0.0753,-0.0752,-0.075,0,0,0,0,0,0,0,0,0,0,0,0,0,-0.0656,-0.061,-0.0609,-0.0659,-0.0665,-0.0728,-0.073,-0.0732,-0.0792,-0.0792,-0.0792,-0.0793,-0.0754,-0.0752,-0.075,-0.0729,0,0,-0.0744,-0.0743,0,0,0,0,0,0,0,0,-0.0653,-0.0655,-0.065,-0.0656,-0.0662,-0.0748,-0.0717,-0.0724,-0.0791,-0.0741,-0.0792,-0.0793,-0.0738,-0.0737,-0.0757,-0.0727,-0.0725,-0.0744,-0.0742,-0.0742,-0.0741,0,0,0,0,0,0,0,-0.065,-0.0652,-0.0654,-0.0652,-0.0659,-0.0737,-0.0741,-0.072,-0.073,-0.0745,-0.075,-0.0768,-0.074,-0.0759,-0.0756,-0.0725,-0.0744,-0.0742,-0.0741,-0.074,-0.0696,-0.0696,0,0,0,0,0,0,-0.063,-0.0647,-0.065,-0.0658,-0.0662,-0.0736,-0.0741,-0.0718,-0.0734,-0.0739,-0.0767,-0.077,-0.0762,-0.0759,-0.0755,-0.0759,-0.0742,-0.074,-0.0739,-0.0696,-0.0696,-0.0696,0,0,0,0,0,0,-0.0629,-0.0628,-0.0646,-0.0661,-0.0669,-0.0734,-0.0709,-0.072,-0.0756,-0.0753,-0.0755,-0.0793,-0.0763,-0.0758,-0.0748,-0.0756,-0.0739,-0.0737,-0.0696,-0.0696,-0.0696,-0.0747,0,0,0,0,0,0,-0.0628,-0.0625,-0.0625,-0.0657,-0.0667,-0.0693,-0.0709,-0.0722,-0.0766,-0.0772,-0.0775,-0.0772,-0.0763,-0.0751,-0.0746,-0.0753,-0.0735,-0.0696,-0.0696,-0.0696,-0.0745,-0.0749,-0.0752,0,0,0,0,0,-0.0627,-0.0628,-0.0622,-0.0625,-0.0654,-0.0694,-0.0707,-0.0755,-0.0767,-0.0787,-0.0786,-0.0773,-0.0747,-0.075,-0.0743,-0.075,-0.0696,-0.0696,-0.0696,-0.0744,-0.0748,-0.0752,0,0,0,0,0,0,-0.0641,-0.0636,-0.063,-0.0631,-0.0661,-0.0706,-0.0741,-0.0761,-0.0781,-0.0784,-0.0773,-0.0769,-0.0762,-0.0745,-0.0748,-0.0736,-0.0719,-0.0718,-0.0757,-0.0761,-0.0764,-0.0778,-0.0734,0,0,0,0,0,-0.0636,-0.0632,-0.0641,-0.065,-0.0657,-0.0696,-0.0726,-0.075,-0.0768,-0.0781,-0.0783,-0.0773,-0.0755,-0.0751,-0.0735,-0.0728,-0.0745,-0.0727,-0.0731,-0.0734,-0.074,-0.0768,-0.0776,-0.0696,-0.0696,-0.0696,0,0,-0.0649,-0.0648,-0.0648,-0.0655,-0.0679,-0.0708,-0.0715,-0.0758,-0.0788,-0.0766,-0.0804,-0.0782,-0.0754,-0.0752,-0.0747,-0.0742,-0.077,-0.0734,-0.0737,-0.0741,-0.0769,-0.0777,-0.0784,-0.0696,-0.0696,-0.0696,0,0,-0.0679,-0.0659,-0.0666,-0.069,-0.0723,-0.0738,-0.0748,-0.0785,-0.0804,-0.0825,-0.0812,-0.0798,-0.0789,-0.0774,-0.076,-0.0767,-0.0783,-0.0761,-0.0794,-0.0823,-0.083,-0.0837,-0.0899,-0.091,-0.0768,-0.0768,-0.0768,0,-0.0695,-0.0697,-0.0686,-0.071,-0.0749,-0.0748,-0.0787,-0.0799,-0.0836,-0.0853,-0.0841,-0.083,-0.0799,-0.0793,-0.0793,-0.0776,-0.0811,-0.0785,-0.083,-0.0836,-0.0842,-0.0904,-0.0916,-0.0771,-0.077,-0.077,-0.077,0,-0.0725,-0.0747,-0.0761,-0.0776,-0.0812,-0.0848,-0.0858,-0.0886,-0.0898,-0.091,-0.0913,-0.0872,-0.0875,-0.0848,-0.082,-0.0839,-0.086,-0.083,-0.0827,-0.0854,-0.0917,-0.0929,-0.0774,-0.0773,-0.0773,-0.0772,0,0,-0.0697,-0.0765,-0.0772,-0.0808,-0.0854,-0.088,-0.0926,-0.0961,-0.0999,-0.0989,-0.104,-0.097,-0.0956,-0.0937,-0.0896,-0.0896,-0.0962,-0.0886,-0.0886,-0.0961,-0.1067,-0.0989,-0.0995,-0.0952,-0.0953,-0.0954,-0.1106,0,-0.0725,-0.0782,-0.0821,-0.09,-0.0927,-0.0971,-0.102,-0.1055,-0.1072,-0.1114,-0.1058,-0.1067,-0.0986,-0.0989,-0.0979,-0.0962,-0.0991,-0.0926,-0.1017,-0.102,-0.0958,-0.1004,-0.0959,-0.1115,-0.1117,-0.1119,-0.1121,0,-0.0726,-0.0772,-0.0845,-0.096,-0.0979,-0.103,-0.1117,-0.1163,-0.1205,-0.1225,-0.1223,-0.1197,-0.1183,-0.1112,-0.1119,-0.109,-0.1092,-0.1071,-0.1076,-0.099,-0.0962,-0.1072,-0.1142,-0.1141,-0.1139,-0.1138,-0.1136,0,-0.0682,-0.0791,-0.0853,-0.0889,-0.1002,-0.106,-0.1121,-0.1188,-0.1227,-0.1292,-0.1328,-0.1319,-0.1319,-0.1304,-0.1255,-0.121,-0.1283,-0.1222,-0.1163,-0.116,-0.1165,-0.1155,-0.1256,-0.1256,-0.1255,-0.1255,-0.1254,0,-0.0675,-0.0729,-0.0837,-0.0868,-0.0956,-0.1049,-0.1139,-0.1203,-0.129,-0.1331,-0.1368,-0.1382,-0.1365,-0.1389,-0.134,-0.1299,-0.1366,-0.1186,-0.1188,-0.1186,-0.1177,-0.1176,-0.1164,-0.1261,-0.1259,-0.1258,-0.1257,0,-0.0612,-0.0681,-0.0756,-0.0887,-0.0931,-0.0987,-0.1133,-0.1186,-0.1289,-0.1354,-0.1377,-0.1453,-0.1477,-0.1479,-0.1482,-0.1402,-0.1374,-0.1353,-0.1407,-0.1407,-0.1221,-0.121,-0.1301,-0.13,-0.1298,-0.1297,-0.1296,0,-0.0589,-0.0614,-0.0739,-0.0776,-0.0838,-0.094,-0.1006,-0.1148,-0.12,-0.1358,-0.1371,-0.1463,-0.1488,-0.1467,-0.1464,-0.1447,-0.1392,-0.1413,-0.1243,-0.123,-0.1224,-0.1215,-0.1207,-0.1294,-0.1294,-0.1293,-0.1293,0,-0.0548,-0.0582,-0.0639,-0.0696,-0.0768,-0.0862,-0.0967,-0.1004,-0.1162,-0.1267,-0.1327,-0.1353,-0.1409,-0.1401,-0.1435,-0.1388,-0.1407,-0.1397,-0.1396,-0.1237,-0.1222,-0.1216,-0.1209,-0.1288,-0.1289,-0.1289,-0.129,0,-0.051,-0.0522,-0.0571,-0.0622,-0.0697,-0.0758,-0.0841,-0.0928,-0.1009,-0.1187,-0.1198,-0.1301,-0.1392,-0.1374,-0.1379,-0.1364,-0.1292,-0.1215,-0.1223,-0.1229,-0.1123,-0.1089,-0.1132,0,0,0,0,0,-0.0481,-0.0473,-0.0498,-0.055,-0.0615,-0.0666,-0.08,-0.0888,-0.104,-0.1046,-0.1125,-0.1164,-0.1197,-0.1246,-0.1203,-0.1311,-0.1287,-0.1254,-0.12,-0.1262,-0.1268,-0.1142,0,0,0,0,0,0,-0.0455,-0.047,-0.0463,-0.0469,-0.0492,-0.0571,-0.0659,-0.0774,-0.0794,-0.0942,-0.0964,-0.1069,-0.1111,-0.119,-0.1166,-0.118,-0.1117,-0.1317,-0.1314,-0.1259,-0.1264,-0.1268,-0.1141,0,0,0,0,0]},{"header":{"parameterUnit":"m.s-1","parameterCategory":2,"la1":30.2991,"la2":30.254,"lo1":-89.0895,"lo2":-89.0444,"dy":0.0017,"dx":0.0017,"nx":28,"ny":28,"refTime":"2025-04-23T09:00:00:Z","depth":"4","parameterNumber":3,"parameterNumberName":"V-component_of_CURRENTS"},"data":[0,0,0,0,0,0,0,0,0,0,0,0,0,0,0,0,0,0,0,0,0,0,0,0,0,0,0,0,0,0,0,0,0,0,0,0,0,0,0,0,0,0,0,0,0,0,0,0,0,0,0,0,0,0,0,0,0,0,0.0084,0.0084,0,0.0132,0.0133,0.0134,0.0168,0.0168,0.0168,0.0168,0.0192,0.0193,0.0193,0,0,0,0,0,0,0,0,0,0,0,0,0,0.0069,0.0069,0.0084,0.0084,0.0085,0.0132,0.0133,0.0134,0.0168,0.0168,0.0168,0.0168,0.0192,0.0193,0.0193,0,0,0,0,0,0,0,0,0,0,0,0,0,0.0094,0.0069,0.0084,0.0106,0.0108,0.0132,0.0133,0.0134,0.0168,0.0168,0.0168,0.0168,0.0192,0.0192,0.0193,0.0195,0,0,0.0196,0.0196,0,0,0,0,0,0,0,0,0.0092,0.0094,0.0102,0.0104,0.0107,0.0143,0.0137,0.0153,0.0168,0.0147,0.0168,0.0168,0.0172,0.0175,0.0186,0.0196,0.0197,0.0196,0.0196,0.0197,0.0197,0,0,0,0,0,0,0,0.009,0.0093,0.0105,0.0103,0.0106,0.013,0.0134,0.0141,0.0159,0.0149,0.0151,0.0154,0.0174,0.0185,0.0187,0.0198,0.0196,0.0197,0.0197,0.0197,0.0226,0.0226,0,0,0,0,0,0,0.0078,0.0091,0.0103,0.0106,0.0098,0.013,0.0134,0.0132,0.0159,0.0163,0.0153,0.0155,0.0184,0.0186,0.0188,0.0217,0.0197,0.0197,0.0198,0.0226,0.0226,0.0226,0,0,0,0,0,0,0.0078,0.0079,0.0101,0.0099,0.0103,0.013,0.0128,0.0133,0.015,0.0163,0.0167,0.0165,0.0184,0.0186,0.0209,0.0217,0.0198,0.0199,0.0225,0.0226,0.0226,0.0259,0,0,0,0,0,0,0.0077,0.0078,0.0072,0.0097,0.0103,0.0118,0.0128,0.0134,0.0151,0.0153,0.0174,0.0176,0.0184,0.0208,0.021,0.0218,0.0199,0.0225,0.0225,0.0226,0.0258,0.0261,0.0263,0,0,0,0,0,0.0076,0.007,0.0071,0.0073,0.0093,0.0118,0.0123,0.0144,0.0151,0.016,0.0181,0.0176,0.0211,0.0209,0.0211,0.022,0.0225,0.0225,0.0226,0.0257,0.026,0.0263,0,0,0,0,0,0,0.0066,0.0073,0.0075,0.0072,0.0093,0.0123,0.0127,0.0145,0.017,0.017,0.0187,0.0191,0.0213,0.0209,0.0206,0.0228,0.0214,0.0215,0.0236,0.024,0.0243,0.0205,0.02,0,0,0,0,0,0.0057,0.0048,0.0071,0.0067,0.0074,0.0101,0.0112,0.013,0.0154,0.0165,0.0185,0.0199,0.0215,0.0223,0.0234,0.0248,0.0235,0.0251,0.0254,0.0257,0.0226,0.0234,0.0234,0.0228,0.0228,0.0228,0,0,0.0052,0.0053,0.0049,0.0063,0.0076,0.0087,0.0109,0.0126,0.014,0.0162,0.0188,0.0212,0.0222,0.0244,0.0251,0.0243,0.0255,0.0257,0.026,0.0227,0.0234,0.0235,0.0235,0.0229,0.0228,0.0228,0,0,0.0031,0.0037,0.0021,0.0038,0.0055,0.0077,0.0083,0.0119,0.0139,0.017,0.019,0.0218,0.0243,0.0258,0.0265,0.0285,0.0272,0.0289,0.0271,0.0281,0.0281,0.0281,0.0282,0.0282,0.0288,0.0288,0.0288,0,0.0026,0.0005,0.0024,0.002,0.0027,0.0071,0.0068,0.0101,0.0145,0.0148,0.0178,0.0214,0.0246,0.0252,0.0274,0.029,0.0286,0.0264,0.0284,0.0284,0.0283,0.0284,0.0283,0.029,0.0289,0.0289,0.0289,0,-0.0003,-0.0016,-0.0019,-0.0016,0.0001,0.0008,0.005,0.0073,0.0108,0.0133,0.0157,0.0209,0.022,0.0251,0.0277,0.0284,0.0281,0.0292,0.0276,0.0286,0.0286,0.0285,0.0292,0.0291,0.0291,0.0291,0,0,-0.0018,-0.0041,-0.004,-0.0059,-0.002,-0.0014,0.0012,0.0033,0.0029,0.0093,0.0087,0.0158,0.0179,0.0188,0.0227,0.0249,0.0281,0.0271,0.0271,0.0271,0.0291,0.0322,0.0324,0.0299,0.0299,0.0298,0.0299,0,-0.0046,-0.0087,-0.0077,-0.0096,-0.011,-0.0068,-0.0057,-0.0028,0.0009,0.0022,0.0075,0.0092,0.0157,0.017,0.0205,0.0256,0.0275,0.0278,0.0279,0.0278,0.0306,0.0322,0.0297,0.0298,0.0298,0.0298,0.0297,0,-0.0068,-0.0101,-0.0141,-0.0167,-0.0168,-0.0163,-0.0156,-0.0138,-0.0103,-0.0079,-0.0051,-0.0009,0.0039,0.0096,0.0167,0.0165,0.0221,0.0265,0.0266,0.0272,0.0307,0.0282,0.0295,0.0295,0.0295,0.0295,0.0295,0,-0.01,-0.0136,-0.0182,-0.0184,-0.0199,-0.0209,-0.0203,-0.0175,-0.0176,-0.0145,-0.0143,-0.0092,-0.0053,0.0009,0.0142,0.0142,0.0222,0.023,0.0298,0.0301,0.0256,0.0256,0.0259,0.0259,0.0259,0.0259,0.0259,0,-0.0127,-0.0158,-0.0208,-0.0231,-0.0282,-0.0263,-0.0296,-0.0279,-0.0267,-0.0277,-0.0201,-0.0186,-0.0069,0.0008,0.0101,0.021,0.0192,0.0282,0.0302,0.0273,0.0275,0.0256,0.0256,0.0259,0.0259,0.0259,0.0259,0,-0.0143,-0.0175,-0.0236,-0.0286,-0.0301,-0.0331,-0.0355,-0.0376,-0.0351,-0.036,-0.0352,-0.0257,-0.015,-0.0026,0.0095,0.0166,0.0259,0.0303,0.0264,0.0284,0.0328,0.033,0.033,0.0331,0.0332,0.0333,0.0333,0,-0.0154,-0.0195,-0.0283,-0.0325,-0.0349,-0.0392,-0.0421,-0.0416,-0.0429,-0.0395,-0.0399,-0.0297,-0.0217,-0.0028,0.0107,0.026,0.0298,0.0324,0.0318,0.0315,0.0335,0.0334,0.0335,0.0335,0.0335,0.0335,0.0336,0,-0.0185,-0.0224,-0.0281,-0.0373,-0.0423,-0.0478,-0.051,-0.0529,-0.0514,-0.0502,-0.0432,-0.0322,-0.0191,-0.0028,0.0118,0.0229,0.0289,0.0334,0.0332,0.0325,0.0321,0.034,0.0339,0.0339,0.0338,0.0338,0.0338,0,-0.0207,-0.0257,-0.0342,-0.0414,-0.0481,-0.0533,-0.0552,-0.0554,-0.0559,-0.0513,-0.0485,-0.0333,-0.024,-0.0043,0.0086,0.021,0.0219,0.0231,0.0234,0.0232,0.0222,0.0204,0.019,0,0,0,0,0,-0.0234,-0.0296,-0.0373,-0.0457,-0.0519,-0.0555,-0.0598,-0.0605,-0.0596,-0.0555,-0.0519,-0.0391,-0.0184,-0.0081,0.0043,0.0088,0.0233,0.0234,0.0246,0.0357,0.0353,0.0363,0,0,0,0,0,0,-0.0256,-0.0337,-0.0381,-0.0469,-0.0523,-0.0588,-0.0617,-0.0615,-0.0581,-0.055,-0.0429,-0.0373,-0.0159,-0.0248,0.0045,0.0083,0.0102,0.0336,0.0338,0.0359,0.0355,0.0352,0.0362,0,0,0,0,0]}]]